www.pogodaiklimat.ru

Погода и климат >> Архив погоды >> Канада >> Eureka


ПОГОДА в Eureka

  • Прогноз погоды в Eureka
  • Монитор погоды в Eureka
  • Климат города

АРХИВ ПОГОДЫ в Eureka

Время (UTC), дата Ветер
(напр.,м/с)
 
Видим.   Явления Облачность Т
(С)
Тd
(С)
f
(%)
Тe
(С)
Тes
(С)
Комфортность P
(гПа)
Po
(гПа)
Тmin
(С)
Tmax
(С)
R
(мм)
R24
(мм)
S
(см)
03 15.10 ЮВ 2 2400 м 10/10 50 м
[]
-24.9 -27.8 77 -30 -30 1011.8 1010.3
06 15.10 В 1 2400 м дымка {снег} 3/3 50 м
[St]
-26.5 -29.6 75 -30 -30 1011.2 1009.7 0.0 8
09 15.10 С 1 2400 м 10/10 50 м
[]
-29.5 -32.8 73 -31 -31 опасность
обморожения
1010.7 1009.2
12 15.10 800 м слабый снег {туман} н/о -30.4 -33.8 72 -37 -37 опасность
обморожения
1010.3 1008.8 0.0 13
15 15.10 В 1 400 м н/о -30.9 -34.3 72 -35 -35 опасность
обморожения
1009.7 1008.2
18 15.10 В 1 12 км {снег, туман} 1/1 50 м
[St]
-32.3 -35.8 71 -37 -37 опасность
обморожения
1009.8 1008.3 -26.6 0.0 13
21 15.10 В 1 24 км 1/1 50 м
[]
-31.4 -34.8 72 -36 -36 опасность
обморожения
1010.3 1008.8
00 16.10 В 2 24 км 1/1 50 м
[Sc]
-31.0 -34.4 72 -37 -37 опасность
обморожения
1010.7 1009.2 -32.7 -28.5
03 16.10 С 1 24 км ясно -28.4 -31.6 74 -30 -30 1011.3 1009.8
06 16.10 В 1 24 км {снег} ясно -28.5 -31.8 73 -33 -33 опасность
обморожения
1012.0 1010.5 0.0 7
09 16.10 С 1 24 км ясно -30.0 -33.4 72 -34 -34 опасность
обморожения
1012.8 1011.3
12 16.10 З 3 24 км в посл. час снег ясно -29.7 -33.1 72 -39 -39 опасность
обморожения
1012.9 1011.4 0.0 11
15 16.10 З 5 24 км 9/0
[]
-28.7 -31.9 74 -40 -40 опасность
обморожения
1012.4 1010.9
18 16.10 СЗ 2 24 км 10/0
[As op Ci fib]
-29.4 -32.8 72 -35 -35 опасность
обморожения
1012.4 1010.9 -26.9
21 16.10 С 1 24 км 10/0
[]
-28.6 -31.9 73 -30 -30 1011.8 1010.3
00 17.10 В 2 24 км 9/0
[Ac As]
-29.3 -32.6 73 -35 -35 опасность
обморожения
1012.0 1010.5 -31.1 -27.8
03 17.10 СВ 1 24 км 8/0
[]
-26.4 -29.5 75 -30 -30 1012.0 1010.5
06 17.10 ЮВ 3 24 км 3/0
[Ci fib]
-28.1 -31.4 73 -37 -37 опасность
обморожения
1012.5 1011.0 15
09 17.10 СВ 2 24 км 4/0
[]
-26.4 -29.6 74 -32 -32 опасность
обморожения
1013.0 1011.5
12 17.10 ЮВ 3 24 км 6/0
[As trans Ci fib]
-26.8 -29.9 75 -35 -35 опасность
обморожения
1013.0 1011.5 11
15 17.10 С 1 24 км 4/0
[]
-26.8 -29.9 75 -28 -28 1013.2 1011.7
18 17.10 СЗ 1 24 км 8/0
[As trans Ci]
-26.8 -29.9 75 -31 -31 опасность
обморожения
1013.3 1011.8 -24.7
21 17.10 С 1 24 км 3/0
[]
-28.3 -31.5 74 -29 -29 1013.4 1011.9
00 18.10 С 1 24 км ясно -29.7 -33.0 73 -31 -31 опасность
обморожения
1013.2 1011.7 -30.1 -24.7
03 18.10 З 2 24 км ясно -29.1 -32.4 73 -35 -35 опасность
обморожения
1012.7 1011.2
06 18.10 С 1 24 км ясно -30.5 -33.9 72 -32 -32 опасность
обморожения
1011.9 1010.4 12
09 18.10 В 2 24 км ясно -31.5 -34.9 72 -38 -38 опасность
обморожения
1011.1 1009.6
12 18.10 СВ 2 24 км ясно -31.1 -34.6 71 -37 -37 опасность
обморожения
1010.5 1009.0 9
15 18.10 В 1 24 км 1/0 2000 м
[]
-28.9 -32.2 73 -33 -33 опасность
обморожения
1010.5 1009.0
18 18.10 В 2 24 км 1/0 2000 м
[Ac As]
-28.8 -32.1 73 -36 -36 опасность
обморожения
1010.8 1009.3 -27.4
21 18.10 В 2 24 км 6/0
[]
-28.4 -31.7 73 -34 -34 опасность
обморожения
1011.3 1009.8
00 19.10 СВ 2 24 км ледяные иглы ясно -29.3 -32.6 73 -35 -35 опасность
обморожения
1011.6 1010.1 -32.3 -26.9 0.0 9
03 19.10 СВ 1 24 км ясно -26.3 -29.3 76 -30 -30 1011.1 1009.6
06 19.10 В 2 24 км {снег} ясно -29.6 -32.9 73 -36 -36 опасность
обморожения
1011.1 1009.6 0.0 11
09 19.10 С 1 24 км ясно -29.4 -32.8 72 -31 -31 опасность
обморожения
1011.1 1009.6
12 19.10 СВ 1 24 км 5/0
[Ac As Ci]
-31.1 -34.6 71 -35 -35 опасность
обморожения
1010.6 1009.1 9
15 19.10 Ю 1 24 км 8/8 1500 м
[]
-28.5 -31.8 73 -33 -33 опасность
обморожения
1010.8 1009.3
18 19.10 С 1 24 км 3/0
[Ac As Ci fib]
-29.4 -32.7 73 -31 -31 опасность
обморожения
1011.1 1009.6 -27.7
21 19.10 ЮВ 2 24 км 6/6 1000 м
[]
-29.1 -32.4 73 -35 -35 опасность
обморожения
1012.3 1010.8
00 20.10 С 1 24 км 9/9 1000 м
[Sc Ac As]
-25.8 -28.9 75 -27 -27 1012.7 1011.2 -32.2 -25.7
03 20.10 ЮВ 1 24 км 9/9 1000 м
[]
-27.1 -30.2 75 -31 -31 опасность
обморожения
1013.2 1011.7
06 20.10 С 1 24 км 1/1 1500 м
[Sc As trans]
-27.9 -31.2 73 -29 -29 1013.7 1012.2 10
09 20.10 С 1 24 км ясно -28.6 -31.8 74 -30 -30 1014.6 1013.1
12 20.10 В 1 24 км 8/5 1500 м
[Sc As op]
-28.4 -31.7 73 -32 -32 опасность
обморожения
1014.7 1013.2 9
15 20.10 ЮЗ 1 24 км 4/4 1500 м
[]
-27.8 -31.0 74 -32 -32 опасность
обморожения
1014.4 1012.9
18 20.10 С 1 24 км 3/0
[Ac As]
-28.5 -31.7 74 -30 -30 1014.9 1013.4 -27.1
21 20.10 В 2 24 км 5/5 1500 м
[]
-30.6 -34.0 72 -37 -37 опасность
обморожения
1015.5 1014.0
00 21.10 В 1 24 км 4/1 1500 м
[Sc Ac As]
-28.7 -32.0 73 -33 -33 опасность
обморожения
1015.5 1014.0 -31.1 -27.1
03 21.10 С 1 24 км 1/0
[]
-30.0 -33.4 72 -31 -31 опасность
обморожения
1016.0 1014.5
06 21.10 С 1 24 км {снег} 4/4 1500 м
[Sc]
-28.9 -32.2 73 -30 -30 1016.6 1015.1 0.0 4
09 21.10 С 1 24 км 3/3 1500 м
[]
-27.0 -30.2 74 -28 -28 1017.1 1015.6
12 21.10 С 1 24 км слабый снег 9/4 1500 м
[Sc Ac As]
-28.9 -32.2 73 -30 -30 1017.1 1015.6 0.0 9
15 21.10 С 1 24 км 10/10 1000 м
[]
-25.9 -29.0 75 -27 -27 1017.5 1016.0
18 21.10 С 1 24 км слабый снег 9/9 1000 м
[Sc Ac As]
-25.0 -28.0 76 -26 -26 1017.9 1016.4 -24.8 0.0 9
21 21.10 С 1 24 км 9/9 1000 м
[]
-24.8 -27.8 76 -26 -26 1018.7 1017.2

 

Местоположение метеостанции Eureka (Канада): широта 79.98 долгота -85.93 высота над уровнем моря 10 м.

В архиве по умолчанию представлена погода в Eureka за последнюю неделю. Архивные данные за месяц целиком и за предыдущие месяцы, начиная с января 2011 года, Вы можете получить, выбрав интересующий диапазон дат из раскрывающегося списка и нажав кнопку "Ввод!".

Внимание! Время в таблицах - всемирное. Для получения местного времени необходимо прибавить поправку, которая в Eureka равна -6 ч.

Смотрите также архив погоды в соседних городах и на ближайших метеорологических станциях:

Погода в Eureka Climate (Канада) (1 км)
Погода в Chris Hadfield (Канада) (343 км)
Погода в Isachsen (aut) (Канада) (382 км)
Погода в Mittarfik Qaanaaq (Гренландия) (452 км)
Погода в Kitsissut (Гренландия) (471 км)
Погода в Alert Climate (Канада) (483 км)
Погода в Resolute Cs (Канада) (623 км)
Погода в Resolute Airport (Канада) (623 км)
Погода в Arctic Bay (Канада) (777 км)
Погода в Pond Inlet Airport (Канада) (834 км)

Пояснения к столбцам:

Ветер - указаны скорость ветра в м/с - средняя за 10 мин, порывы в срок и между сроками (в фигурных скобках) и направление, откуда дует ветер: С - северный, СВ - северо-восточный, В - восточный, ЮВ - юго-восточный, Ю - южный, ЮЗ - юго-западный, З - западный, СЗ - северо-западный.
Видимость - горизонтальная дальность видимости в метрах или километрах. При видимости от 1 до 10 км при отсутствии осадков обычно наблюдается дымка, при ухудшении видимости до 1 км и менее - туман. В сухую погоду видимость может ухудшаться дымом, пылью или мглою.
Явления - указаны атмосферные явления, наблюдавшиеся в срок или в последний час перед сроком; фигурными скобками обозначены явления, наблюдавшиеся между сроками (за 1-3 часа до срока); квадратными скобками обозначены град или гололедные отложения с указанием их диаметра в мм.
Облачность - указаны через наклонную черту общая и нижняя облачность в баллах и высота нижней границы облаков в метрах; квадратными скобками обозначены формы облаков: Ci - перистые, Cs - перисто-слоистые, Cc - перисто-кучевые, Ac - высококучевые, As - высокослоистые, Sc - слоисто-кучевые, Ns - слоисто-дождевые, Cu - кучевые, Cb - кучево-дождевые. Подробнее классификацию облаков см. в Атласе облаков (PDF).
T - Температура воздуха - температура, измеренная на высоте 2 м над землей.
Td - Температура точки росы - температура, при понижении до которой содержащийся в воздухе водяной пар достигнет насыщения.
f - Относительная влажность воздуха - влажноcть воздуха, измеренная на высоте 2 м над землей.
Te - Эффективная температура - температура, которую ощущает одетый по сезону человек в тени. Характеристика душности погоды. При расчете учитывается влияние влажности воздуха и скорости ветра на теплоощущения человека.
Tes - Эффективная температура на солнце - температура, которую ощущает человек, с поправкой на солнечный нагрев. Характеристика знойности погоды. Зависит от высоты солнца над горизонтом, облачности и скорости ветра. Ночью, в пасмурную погоду, а также при ветре 12 м/с и более поправка равна нулю.
P - Атмосферное давление - приведенное к уровню моря атмосферное давление.
Po - Атмосферное давление - измеренное на уровне метеостанции атмосферное давление.
Tmin - Минимальная температура - минимум температуры воздуха на высоте 2 м над землей.
Tmax - Максимальная температура - максимум температуры воздуха на высоте 2 м над землей.
R - Количество осадков - Количество выпавших осадков за период времени, мм. При наведении курсора мыши на число - период времени, за который выпало указанное количество осадков.
R24 - Количество осадков - Количество выпавших осадков за 24 часа, мм.
S - Снежный покров - Высота снежного покрова, см. При наведении курсора мыши на число - состояние снежного покрова и степень покрытия местности в баллах.